| time (UTC) | temp C | wind direction | speed KPH | gust KPH | rain 1hr cm | rain 24hr cm | rain mn cm | humidity % | barometer mb |
| 20260505025036 | 14 | 360 | 6.4 | 19.3 | 0.00 | 0.00 | 0.00 | 54 | 1010.1 |
| 20260505024543 | 14 | 360 | 4.8 | 17.7 | 0.00 | 0.00 | 0.00 | 54 | 1010.0 |
| 20260505024036 | 14 | 360 | 4.8 | 19.3 | 0.00 | 0.00 | 0.00 | 53 | 1010.0 |
| 20260505023536 | 14 | 360 | 8.0 | 19.3 | 0.00 | 0.00 | 0.00 | 53 | 1010.0 |
| 20260505023046 | 14 | 360 | 3.2 | 20.9 | 0.00 | 0.00 | 0.00 | 53 | 1010.1 |
| 20260505022534 | 15 | 360 | 4.8 | 22.5 | 0.00 | 0.00 | 0.00 | 52 | 1010.1 |
| 20260505022033 | 15 | 360 | 9.7 | 22.5 | 0.00 | 0.00 | 0.00 | 52 | 1010.1 |
| 20260505021541 | 15 | 360 | 4.8 | 22.5 | 0.00 | 0.00 | 0.00 | 52 | 1010.2 |
| 20260505021034 | 15 | 360 | 6.4 | 22.5 | 0.00 | 0.00 | 0.00 | 51 | 1010.2 |
| 20260505020531 | 15 | 360 | 4.8 | 22.5 | 0.00 | 0.00 | 0.00 | 51 | 1010.2 |
| 20260505020047 | 15 | 360 | 3.2 | 22.5 | 0.00 | 0.00 | 0.00 | 51 | 1010.1 |
| 20260505015532 | 15 | 360 | 8.0 | 20.9 | 0.00 | 0.00 | 0.00 | 50 | 1010.1 |
| 20260505015033 | 15 | 360 | 4.8 | 16.1 | 0.00 | 0.00 | 0.00 | 50 | 1010.1 |
| 20260505014546 | 15 | 360 | 3.2 | 16.1 | 0.00 | 0.00 | 0.00 | 49 | 1010.1 |
| 20260505014051 | 15 | 360 | 4.8 | 16.1 | 0.00 | 0.00 | 0.00 | 49 | 1010.0 |
| 20260505013530 | 15 | 360 | 3.2 | 12.9 | 0.00 | 0.00 | 0.00 | 48 | 1010.0 |
| 20260505013059 | 16 | 360 | 4.8 | 19.3 | 0.00 | 0.00 | 0.00 | 48 | 1009.8 |
| 20260505012530 | 16 | 360 | 4.8 | 24.1 | 0.00 | 0.00 | 0.00 | 48 | 1009.7 |
| 20260505012030 | 16 | 360 | 4.8 | 24.1 | 0.00 | 0.00 | 0.00 | 47 | 1009.6 |
| 20260505011544 | 16 | 0 | 6.4 | 24.1 | 0.00 | 0.00 | 0.00 | 47 | 1009.6 |
| 20260505011031 | 16 | 360 | 8.0 | 17.7 | 0.00 | 0.00 | 0.00 | 47 | 1009.5 |
| 20260505010530 | 16 | 360 | 3.2 | 17.7 | 0.00 | 0.00 | 0.00 | 47 | 1009.5 |
| 20260505010041 | 16 | 360 | 6.4 | 17.7 | 0.00 | 0.00 | 0.00 | 46 | 1009.4 |
| 20260505005534 | 16 | 360 | 4.8 | 20.9 | 0.00 | 0.00 | 0.00 | 46 | 1009.3 |
| 20260505005031 | 16 | 360 | 6.4 | 20.9 | 0.00 | 0.00 | 0.00 | 46 | 1009.1 |
| 20260505004538 | 16 | 360 | 8.0 | 20.9 | 0.00 | 0.00 | 0.00 | 46 | 1009.1 |
| 20260505004031 | 16 | 360 | 4.8 | 17.7 | 0.00 | 0.00 | 0.00 | 46 | 1008.9 |
| 20260505003533 | 16 | 360 | 4.8 | 17.7 | 0.00 | 0.00 | 0.00 | 45 | 1008.9 |
| 20260505003044 | 17 | 360 | 4.8 | 17.7 | 0.00 | 0.00 | 0.00 | 45 | 1008.7 |
| 20260505002533 | 17 | 360 | 4.8 | 17.7 | 0.00 | 0.00 | 0.00 | 45 | 1008.7 |
| 20260505002031 | 17 | 360 | 4.8 | 17.7 | 0.00 | 0.00 | 0.00 | 45 | 1008.5 |
| 20260505001544 | 17 | 360 | 4.8 | 19.3 | 0.00 | 0.00 | 0.00 | 44 | 1008.3 |
| 20260505001034 | 17 | 360 | 6.4 | 19.3 | 0.00 | 0.00 | 0.00 | 43 | 1008.3 |
| 20260505000533 | 17 | 360 | 6.4 | 22.5 | 0.00 | 0.00 | 0.00 | 43 | 1008.1 |
| 20260505000053 | 17 | 360 | 8.0 | 22.5 | 0.00 | 0.00 | 0.00 | 42 | 1008.1 |
| 20260504235535 | 17 | 360 | 3.2 | 20.9 | 0.00 | 0.00 | 0.00 | 41 | 1007.9 |
| 20260504235031 | 18 | 360 | 4.8 | 25.7 | 0.00 | 0.00 | 0.00 | 40 | 1007.8 |
| 20260504234540 | 18 | 360 | 14.5 | 25.7 | 0.00 | 0.00 | 0.00 | 40 | 1007.7 |
| 20260504234031 | 18 | 360 | 8.0 | 25.7 | 0.00 | 0.00 | 0.00 | 40 | 1007.7 |
| 20260504233534 | 18 | 360 | 8.0 | 25.7 | 0.00 | 0.00 | 0.00 | 40 | 1007.6 |
| 20260504233050 | 18 | 360 | 6.4 | 27.4 | 0.00 | 0.00 | 0.00 | 39 | 1007.4 |
| 20260504232531 | 18 | 360 | 9.7 | 27.4 | 0.00 | 0.00 | 0.00 | 39 | 1007.4 |
| 20260504232030 | 19 | 221 | 8.0 | 24.1 | 0.00 | 0.00 | 0.00 | 38 | 1007.3 |
| 20260504231544 | 19 | 147 | 4.8 | 20.9 | 0.00 | 0.00 | 0.00 | 37 | 1007.2 |
| 20260504231030 | 19 | 207 | 9.7 | 22.5 | 0.00 | 0.00 | 0.00 | 36 | 1007.1 |
| 20260504230530 | 20 | 360 | 8.0 | 22.5 | 0.00 | 0.00 | 0.00 | 35 | 1006.9 |
| 20260504230044 | 20 | 360 | 4.8 | 19.3 | 0.00 | 0.00 | 0.00 | 34 | 1006.8 |
| 20260504225532 | 20 | 360 | 4.8 | 19.3 | 0.00 | 0.00 | 0.00 | 32 | 1006.7 |
| 20260504225030 | 21 | 248 | 6.4 | 22.5 | 0.00 | 0.00 | 0.00 | 31 | 1006.6 |
| 20260504224543 | 21 | 214 | 8.0 | 24.1 | 0.00 | 0.00 | 0.00 | 30 | 1006.6 |
| 20260504224032 | 21 | 273 | 12.9 | 24.1 | 0.00 | 0.00 | 0.00 | 30 | 1006.5 |
| 20260504223601 | 21 | 220 | 8.0 | 20.9 | 0.00 | 0.00 | 0.00 | 30 | 1006.4 |
| 20260504223055 | 21 | 360 | 4.8 | 17.7 | 0.00 | 0.00 | 0.00 | 30 | 1006.5 |
| 20260504222534 | 21 | 360 | 11.3 | 17.7 | 0.00 | 0.00 | 0.00 | 29 | 1006.4 |
| 20260504222032 | 21 | 360 | 6.4 | 17.7 | 0.00 | 0.00 | 0.00 | 30 | 1006.5 |
| 20260504221545 | 21 | 360 | 6.4 | 20.9 | 0.00 | 0.00 | 0.00 | 29 | 1006.4 |
| 20260504221034 | 21 | 273 | 8.0 | 30.6 | 0.00 | 0.00 | 0.00 | 29 | 1006.4 |
| 20260504220533 | 21 | 232 | 8.0 | 30.6 | 0.00 | 0.00 | 0.00 | 29 | 1006.5 |
| 20260504220046 | 21 | 196 | 9.7 | 30.6 | 0.00 | 0.00 | 0.00 | 29 | 1006.6 |
| 20260504215533 | 21 | 324 | 6.4 | 38.6 | 0.00 | 0.00 | 0.00 | 29 | 1006.5 |
| 20260504215034 | 21 | 263 | 8.0 | 38.6 | 0.00 | 0.00 | 0.00 | 28 | 1006.6 |
| 20260504214548 | 21 | 213 | 8.0 | 30.6 | 0.00 | 0.00 | 0.00 | 29 | 1006.5 |
| 20260504214032 | 21 | 270 | 11.3 | 30.6 | 0.00 | 0.00 | 0.00 | 29 | 1006.4 |
| 20260504213533 | 22 | 220 | 12.9 | 27.4 | 0.00 | 0.00 | 0.00 | 28 | 1006.4 |
| 20260504213042 | 22 | 240 | 11.3 | 27.4 | 0.00 | 0.00 | 0.00 | 28 | 1006.5 |
| 20260504212534 | 22 | 242 | 11.3 | 24.1 | 0.00 | 0.00 | 0.00 | 29 | 1006.5 |
| 20260504212034 | 22 | 198 | 11.3 | 32.2 | 0.00 | 0.00 | 0.00 | 29 | 1006.5 |
| 20260504211552 | 21 | 309 | 11.3 | 32.2 | 0.00 | 0.00 | 0.00 | 28 | 1006.4 |
| 20260504211036 | 21 | 360 | 11.3 | 32.2 | 0.00 | 0.00 | 0.00 | 29 | 1006.5 |
| 20260504210537 | 21 | 250 | 11.3 | 27.4 | 0.00 | 0.00 | 0.00 | 29 | 1006.5 |
| 20260504210046 | 21 | 95 | 11.3 | 22.5 | 0.00 | 0.00 | 0.00 | 29 | 1006.5 |
| 20260504205533 | 21 | 254 | 9.7 | 22.5 | 0.00 | 0.00 | 0.00 | 28 | 1006.5 |
| 20260504205033 | 21 | 360 | 9.7 | 19.3 | 0.00 | 0.00 | 0.00 | 28 | 1006.6 |
| 20260504204545 | 21 | 224 | 11.3 | 25.7 | 0.00 | 0.00 | 0.00 | 28 | 1006.6 |
| 20260504204030 | 22 | 360 | 11.3 | 32.2 | 0.00 | 0.00 | 0.00 | 28 | 1006.5 |
| 20260504203533 | 22 | 0 | 9.7 | 32.2 | 0.00 | 0.00 | 0.00 | 28 | 1006.5 |
| 20260504203042 | 22 | 360 | 8.0 | 29.0 | 0.00 | 0.00 | 0.00 | 28 | 1006.5 |
| 20260504202534 | 22 | 360 | 8.0 | 27.4 | 0.00 | 0.00 | 0.00 | 27 | 1006.4 |
| 20260504202029 | 22 | 360 | 11.3 | 27.4 | 0.00 | 0.00 | 0.00 | 27 | 1006.4 |
| 20260504201548 | 22 | 255 | 9.7 | 33.8 | 0.00 | 0.00 | 0.00 | 27 | 1006.4 |
| 20260504201037 | 22 | 229 | 9.7 | 33.8 | 0.00 | 0.00 | 0.00 | 28 | 1006.5 |
| 20260504200530 | 21 | 232 | 12.9 | 37.0 | 0.00 | 0.00 | 0.00 | 27 | 1006.6 |
| 20260504200047 | 21 | 262 | 14.5 | 37.0 | 0.00 | 0.00 | 0.00 | 26 | 1006.6 |
| 20260504195532 | 21 | 360 | 14.5 | 27.4 | 0.00 | 0.00 | 0.00 | 27 | 1006.7 |
| 20260504195031 | 21 | 360 | 11.3 | 29.0 | 0.00 | 0.00 | 0.00 | 27 | 1006.5 |
| 20260504194550 | 21 | 360 | 12.9 | 29.0 | 0.00 | 0.00 | 0.00 | 26 | 1006.7 |
| 20260504194032 | 21 | 360 | 16.1 | 29.0 | 0.00 | 0.00 | 0.00 | 26 | 1006.7 |
| 20260504193534 | 21 | 360 | 12.9 | 27.4 | 0.00 | 0.00 | 0.00 | 28 | 1006.7 |
| 20260504193044 | 21 | 360 | 11.3 | 25.7 | 0.00 | 0.00 | 0.00 | 26 | 1006.7 |
| 20260504192532 | 21 | 360 | 12.9 | 27.4 | 0.00 | 0.00 | 0.00 | 27 | 1006.5 |
| 20260504192032 | 21 | 360 | 6.4 | 33.8 | 0.00 | 0.00 | 0.00 | 27 | 1006.6 |
| 20260504191554 | 21 | 360 | 8.0 | 33.8 | 0.00 | 0.00 | 0.00 | 26 | 1006.6 |
| 20260504191031 | 21 | 360 | 12.9 | 33.8 | 0.00 | 0.00 | 0.00 | 26 | 1006.8 |
| 20260504190534 | 22 | 236 | 9.7 | 25.7 | 0.00 | 0.00 | 0.00 | 26 | 1006.7 |
| 20260504190038 | 21 | 360 | 8.0 | 25.7 | 0.00 | 0.00 | 0.00 | 27 | 1006.7 |
| 20260504185531 | 21 | 360 | 11.3 | 33.8 | 0.00 | 0.00 | 0.00 | 28 | 1006.9 |
| 20260504185031 | 21 | 360 | 17.7 | 33.8 | 0.00 | 0.00 | 0.00 | 27 | 1007.0 |
| 20260504184602 | 21 | 360 | 11.3 | 32.2 | 0.00 | 0.00 | 0.00 | 28 | 1007.0 |
| 20260504184032 | 21 | 360 | 14.5 | 32.2 | 0.00 | 0.00 | 0.00 | 29 | 1007.1 |
| 20260504183532 | 21 | 360 | 12.9 | 30.6 | 0.00 | 0.00 | 0.00 | 27 | 1006.9 |
| 20260504183045 | 21 | 360 | 16.1 | 35.4 | 0.00 | 0.00 | 0.00 | 28 | 1006.9 |
| 20260504182532 | 21 | 360 | 19.3 | 35.4 | 0.00 | 0.00 | 0.00 | 27 | 1007.1 |
| 20260504182031 | 21 | 360 | 8.0 | 27.4 | 0.00 | 0.00 | 0.00 | 28 | 1007.0 |
| 20260504181547 | 21 | 360 | 12.9 | 29.0 | 0.00 | 0.00 | 0.00 | 29 | 1007.0 |
| 20260504181034 | 21 | 263 | 8.0 | 30.6 | 0.00 | 0.00 | 0.00 | 28 | 1007.2 |
| 20260504180530 | 21 | 360 | 14.5 | 30.6 | 0.00 | 0.00 | 0.00 | 27 | 1007.1 |
| 20260504180044 | 20 | 360 | 8.0 | 30.6 | 0.00 | 0.00 | 0.00 | 29 | 1007.1 |
| 20260504175533 | 20 | 360 | 9.7 | 30.6 | 0.00 | 0.00 | 0.00 | 30 | 1007.4 |
| 20260504175033 | 20 | 360 | 14.5 | 30.6 | 0.00 | 0.00 | 0.00 | 28 | 1007.3 |
| 20260504174548 | 20 | 360 | 17.7 | 30.6 | 0.00 | 0.00 | 0.00 | 29 | 1007.4 |
| 20260504174033 | 20 | 360 | 9.7 | 29.0 | 0.00 | 0.00 | 0.00 | 29 | 1007.4 |
| 20260504173532 | 20 | 360 | 16.1 | 29.0 | 0.00 | 0.00 | 0.00 | 28 | 1007.5 |
| 20260504173045 | 20 | 360 | 6.4 | 30.6 | 0.00 | 0.00 | 0.00 | 31 | 1007.3 |
| 20260504172531 | 20 | 360 | 12.9 | 30.6 | 0.00 | 0.00 | 0.00 | 32 | 1007.6 |
| 20260504172031 | 20 | 360 | 8.0 | 33.8 | 0.00 | 0.00 | 0.00 | 29 | 1007.6 |
| 20260504171546 | 20 | 360 | 16.1 | 33.8 | 0.00 | 0.00 | 0.00 | 29 | 1007.4 |
| 20260504171034 | 20 | 360 | 16.1 | 33.8 | 0.00 | 0.00 | 0.00 | 30 | 1007.5 |
| 20260504170533 | 20 | 360 | 14.5 | 33.8 | 0.00 | 0.00 | 0.00 | 30 | 1007.6 |
| 20260504151032 | 18 | 360 | 11.3 | 33.8 | 0.00 | 0.00 | 0.00 | 32 | 1008.7 |
| 20260504150534 | 18 | 360 | 11.3 | 33.8 | 0.00 | 0.00 | 0.00 | 33 | 1008.8 |
| 20260504141031 | 17 | 360 | 8.0 | 29.0 | 0.00 | 0.00 | 0.00 | 37 | 1009.1 |
| 20260504140531 | 16 | 360 | 6.4 | 29.0 | 0.00 | 0.00 | 0.00 | 38 | 1009.3 |
| 20260504130533 | 14 | 360 | 8.0 | 24.1 | 0.00 | 0.00 | 0.00 | 42 | 1010.0 |
| 20260504110531 | 8 | 360 | 3.2 | 12.9 | 0.00 | 0.00 | 0.00 | 56 | 1010.3 |
| 20260504100532 | 7 | 360 | 1.6 | 6.4 | 0.00 | 0.00 | 0.00 | 56 | 1010.5 |
| 20260504081552 | 6 | 360 | 0.0 | 4.8 | 0.00 | 0.00 | 0.00 | 64 | 1010.3 |
| 20260504081034 | 6 | 0 | 1.6 | 4.8 | 0.00 | 0.00 | 0.00 | 61 | 1010.2 |
| 20260504080538 | 6 | 0 | 0.0 | 3.2 | 0.00 | 0.00 | 0.00 | 65 | 1010.2 |
| 20260504050534 | 3 | 0 | 0.0 | 4.8 | 0.00 | 0.00 | 0.00 | 71 | 1010.2 |
| 20260504045534 | 2 | 360 | 0.0 | 4.8 | 0.00 | 0.00 | 0.00 | 73 | 1010.2 |
| 20260504045034 | 2 | 0 | 0.0 | 4.8 | 0.00 | 0.00 | 0.00 | 73 | 1010.2 |
| 20260504044546 | 3 | 0 | 1.6 | 4.8 | 0.00 | 0.00 | 0.00 | 71 | 1010.3 |
| 20260504044032 | 2 | 0 | 0.0 | 3.2 | 0.00 | 0.00 | 0.00 | 73 | 1010.1 |
| 20260504043532 | 2 | 0 | 0.0 | 1.6 | 0.00 | 0.00 | 0.00 | 73 | 1010.2 |
| 20260504043043 | 2 | 0 | 0.0 | 0.0 | 0.00 | 0.00 | 0.00 | 74 | 1010.1 |
| 20260504042534 | 2 | 0 | 0.0 | 6.4 | 0.00 | 0.00 | 0.00 | 73 | 1010.2 |
| 20260504042034 | 2 | 0 | 0.0 | 6.4 | 0.00 | 0.00 | 0.00 | 74 | 1010.1 |
| 20260504041541 | 2 | 0 | 0.0 | 1.6 | 0.00 | 0.00 | 0.00 | 75 | 1010.2 |
| 20260504041034 | 2 | 360 | 0.0 | 1.6 | 0.00 | 0.00 | 0.00 | 75 | 1010.1 |
| 20260504040534 | 2 | 0 | 0.0 | 0.0 | 0.00 | 0.00 | 0.00 | 75 | 1010.0 |
| 20260504040044 | 2 | 0 | 0.0 | 0.0 | 0.00 | 0.00 | 0.00 | 74 | 1009.9 |
| 20260504035533 | 2 | 0 | 0.0 | 0.0 | 0.00 | 0.00 | 0.00 | 74 | 1009.9 |
| 20260504035035 | 2 | 0 | 0.0 | 0.0 | 0.00 | 0.00 | 0.00 | 74 | 1009.9 |
| 20260504034544 | 2 | 0 | 0.0 | 0.0 | 0.00 | 0.00 | 0.00 | 73 | 1009.8 |
| 20260504034035 | 2 | 0 | 0.0 | 0.0 | 0.00 | 0.00 | 0.00 | 72 | 1009.8 |
| 20260504033534 | 2 | 0 | 0.0 | 0.0 | 0.00 | 0.00 | 0.00 | 72 | 1009.7 |
| 20260504033052 | 3 | 0 | 0.0 | 0.0 | 0.00 | 0.00 | 0.00 | 72 | 1009.7 |
| 20260504032533 | 3 | 0 | 0.0 | 0.0 | 0.00 | 0.00 | 0.00 | 71 | 1009.8 |
| 20260504032034 | 3 | 0 | 0.0 | 0.0 | 0.00 | 0.00 | 0.00 | 71 | 1009.8 |
| 20260504031544 | 3 | 0 | 0.0 | 0.0 | 0.00 | 0.00 | 0.00 | 71 | 1009.7 |
| 20260504031034 | 3 | 0 | 0.0 | 0.0 | 0.00 | 0.00 | 0.00 | 71 | 1009.8 |
| 20260504030534 | 3 | 0 | 0.0 | 0.0 | 0.00 | 0.00 | 0.00 | 70 | 1009.8 |
| 20260504030052 | 3 | 0 | 0.0 | 0.0 | 0.00 | 0.00 | 0.00 | 70 | 1009.8 |
| 20260504025533 | 3 | 0 | 0.0 | 0.0 | 0.00 | 0.00 | 0.00 | 69 | 1009.7 |